Location: *
(43.4667°N, 11.6833°E)
Time: 01:32:51
(UTC+00:00)

Cosmos 1805 Rocket - Pass Details

Date: 19 July 2019
Orbit: 606 x 630 km, 82.5° (Epoch: 21 August)

Event Time Altitude Azimuth Distance (km) Brightness Sun altitude
Exits shadow 20:49:09 34° 144° (SE) 1,019 4.1 -17.1°
Maximum altitude 20:50:36 48° 94° (E) 803 3.8 -17.2°
Drops below altitude 10° 20:54:49 10° 19° (NNE) 1,976 6.6 -17.7°
Sets 20:57:05 0° 14° (NNE) 2,882 7.6 -17.9°
